DM5RC Weather Reports


Display with metric or nautical units.
time (UTC)temp
F
wind
direction
speed
MPH
gust
MPH
rain 1hr
in
rain 24hr
in
rain mn
in
humidity
%
barometer
mb
20260507191320 47 46 3.0 5.0 0.04 2.48 0.50 95 1016.2
20260507190823 47 23 3.0 5.0 0.04 2.48 0.50 95 1016.1
20260507190325 47 3 1.0 5.0 0.04 2.48 0.50 95 1016.0
20260507185828 47 17 1.0 6.0 0.04 2.48 0.50 95 1015.9
20260507185330 47 29 3.0 6.0 0.04 2.48 0.50 95 1015.9
20260507184831 47 58 3.0 6.0 0.00 2.44 0.49 94 1015.9
20260507184331 47 1 3.0 5.0 0.00 2.44 0.49 95 1015.8
20260507183832 47 51 3.0 8.0 0.00 2.44 0.49 95 1015.7
20260507183314 47 32 4.0 8.0 0.00 2.44 0.49 95 1015.7
20260507182814 47 19 3.0 8.0 0.04 2.44 0.49 95 1015.6
20260507182316 47 67 3.0 8.0 0.04 2.44 0.49 95 1015.6
20260507181817 47 29 3.0 8.0 0.04 2.44 0.49 95 1015.5
20260507180828 47 56 4.0 7.0 0.08 2.44 0.49 95 1015.4
20260507180329 47 49 3.0 7.0 0.08 2.44 0.49 95 1015.4
20260507175850 47 336 3.0 7.0 0.08 2.44 0.49 95 1015.5
20260507175332 47 56 2.0 10.0 0.12 2.44 0.49 95 1015.4
20260507174834 47 51 5.0 10.0 0.12 2.44 0.49 95 1015.3
20260507174339 47 18 3.0 10.0 0.16 2.44 0.49 95 1015.3
20260507173819 47 33 4.0 9.0 0.20 2.44 0.49 95 1015.2
20260507173320 47 9 3.0 9.0 0.28 2.44 0.49 95 1015.1
20260507172841 47 359 3.0 11.0 0.28 2.40 0.48 95 1015.0
20260507172321 47 76 5.0 12.0 0.31 2.40 0.48 94 1015.0
20260507171821 47 8 6.0 12.0 0.35 2.40 0.48 94 1015.0
20260507171322 47 39 5.0 10.0 0.35 2.40 0.48 95 1015.0
20260507170822 47 34 5.0 13.0 0.39 2.36 0.47 95 1014.9
20260507170324 47 333 6.0 13.0 0.43 2.36 0.47 94 1014.9
20260507165825 47 30 4.0 8.0 0.43 2.36 0.47 95 1014.9
20260507165325 47 40 4.0 8.0 0.43 2.32 0.46 95 1014.9
20260507164826 47 44 5.0 8.0 0.43 2.32 0.46 95 1014.8
20260507164328 47 15 5.0 9.0 0.39 2.28 0.46 94 1014.7
20260507163831 47 20 6.0 9.0 0.39 2.24 0.45 94 1014.8
20260507163312 47 2 4.0 8.0 0.31 2.17 0.43 94 1014.8
20260507162833 47 13 3.0 10.0 0.31 2.13 0.43 94 1014.8
20260507162334 47 2 4.0 10.0 0.31 2.09 0.42 93 1014.7
20260507161814 47 47 3.0 8.0 0.28 2.05 0.41 94 1014.6
20260507161315 47 52 4.0 11.0 0.28 2.01 0.40 93 1014.6
20260507160818 47 352 6.0 11.0 0.24 1.97 0.39 93 1014.7
20260507160321 48 331 5.0 10.0 0.20 1.93 0.39 93 1014.7
20260507155824 48 37 4.0 10.0 0.20 1.93 0.39 93 1014.7
20260507155327 48 46 4.0 8.0 0.16 1.89 0.38 93 1014.6
20260507154829 48 344 4.0 8.0 0.16 1.89 0.38 93 1014.5
20260507154349 48 20 3.0 8.0 0.16 1.89 0.38 93 1014.5
20260507153849 48 328 3.0 8.0 0.12 1.85 0.37 92 1014.5
20260507153329 48 27 4.0 8.0 0.12 1.85 0.37 92 1014.4
20260507152831 48 350 3.0 11.0 0.08 1.81 0.36 92 1014.4
20260507152314 48 32 4.0 9.0 0.04 1.77 0.35 91 1014.4
20260507151816 48 56 3.0 8.0 0.04 1.77 0.35 91 1014.5
20260507151319 48 29 2.0 7.0 0.00 1.73 0.35 91 1014.5
20260507150822 48 53 3.0 7.0 0.00 1.73 0.35 90 1014.5
20260507150325 48 42 2.0 9.0 0.00 1.73 0.35 90 1014.5
20260507145830 48 36 4.0 11.0 0.00 1.73 0.35 89 1014.4
20260507145334 49 11 4.0 11.0 0.00 1.73 0.35 89 1014.4
20260507144817 49 18 5.0 9.0 0.00 1.73 0.35 89 1014.4
20260507144321 49 16 5.0 8.0 0.00 1.73 0.35 88 1014.3
20260507143827 49 352 3.0 8.0 0.00 1.73 0.35 88 1014.4
20260507143330 49 19 4.0 7.0 0.00 1.73 0.35 88 1014.4
20260507142814 49 44 3.0 10.0 0.00 1.73 0.35 88 1014.3
20260507142319 49 51 5.0 10.0 0.00 1.73 0.35 88 1014.3
20260507141823 49 43 5.0 8.0 0.00 1.73 0.35 89 1014.3
20260507141325 49 70 3.0 6.0 0.00 1.73 0.35 88 1014.3
20260507140830 49 117 3.0 10.0 0.00 1.73 0.35 88 1014.2
20260507140345 49 23 5.0 8.0 0.00 1.73 0.35 88 1014.2
20260507135827 49 47 3.0 9.0 0.00 1.73 0.35 89 1014.2
20260507135329 49 354 4.0 9.0 0.00 1.73 0.35 88 1014.1
20260507134813 49 50 3.0 9.0 0.00 1.73 0.35 88 1014.0
20260507134344 49 46 2.0 8.0 0.00 1.73 0.35 88 1014.1
20260507133846 49 63 4.0 10.0 0.00 1.73 0.35 89 1014.0
20260507133328 49 51 5.0 10.0 0.00 1.73 0.35 88 1013.9
20260507132831 49 44 4.0 10.0 0.00 1.73 0.35 89 1013.8
20260507132314 49 51 5.0 11.0 0.00 1.73 0.35 88 1013.8
20260507131817 49 48 6.0 11.0 0.00 1.73 0.35 88 1013.8
20260507131320 49 39 4.0 9.0 0.00 1.73 0.35 88 1013.7
20260507130823 49 61 5.0 9.0 0.00 1.73 0.35 88 1013.7
20260507130326 49 73 4.0 8.0 0.00 1.73 0.35 89 1013.5
20260507125827 49 334 4.0 9.0 0.00 1.73 0.35 89 1013.5
20260507125327 49 50 5.0 10.0 0.00 1.73 0.35 89 1013.4
20260507124829 49 39 5.0 16.0 0.00 1.73 0.35 89 1013.4
20260507124349 49 338 6.0 16.0 0.00 1.73 0.35 89 1013.4
20260507123849 49 51 4.0 10.0 0.00 1.73 0.35 89 1013.3
20260507123327 49 59 5.0 10.0 0.00 1.73 0.35 89 1013.2
20260507122829 49 49 4.0 11.0 0.00 1.73 0.35 89 1013.2
20260507122341 49 40 6.0 12.0 0.00 1.73 0.35 89 1013.2
20260507121822 50 348 3.0 10.0 0.00 1.73 0.35 91 1013.1
20260507121324 49 57 3.0 10.0 0.00 1.73 0.35 90 1013.1
20260507120827 49 14 5.0 11.0 0.00 1.73 0.35 90 1013.1
20260507120314 48 59 6.0 11.0 0.00 1.73 0.35 90 1013.0
20260507115836 48 48 6.0 10.0 0.00 1.73 0.35 91 1013.0
20260507115321 48 43 5.0 10.0 0.00 1.73 0.35 91 1013.0
20260507114826 48 56 6.0 10.0 0.00 1.73 0.35 91 1013.1
20260507114313 48 295 4.0 10.0 0.00 1.73 0.35 91 1013.0
20260507113816 48 46 4.0 10.0 0.00 1.73 0.35 91 1013.0
20260507113335 48 349 5.0 9.0 0.00 1.73 0.35 91 1012.9
20260507112815 48 53 4.0 9.0 0.00 1.73 0.35 92 1012.8
20260507112320 48 57 5.0 12.0 0.00 1.73 0.35 92 1012.8
20260507111825 48 45 7.0 12.0 0.00 1.73 0.35 92 1012.8
20260507111314 48 65 5.0 11.0 0.04 1.73 0.35 93 1012.9
20260507110816 48 70 5.0 11.0 0.08 1.73 0.35 94 1012.8
20260507110335 48 27 6.0 11.0 0.12 1.73 0.35 94 1012.7
20260507105817 48 341 5.0 11.0 0.20 1.73 0.35 94 1012.8
20260507105318 48 44 5.0 11.0 0.24 1.73 0.35 94 1012.7
20260507104818 48 43 4.0 9.0 0.28 1.73 0.35 95 1012.7
20260507104339 48 58 5.0 9.0 0.31 1.73 0.35 95 1012.7
20260507103818 48 79 4.0 10.0 0.31 1.73 0.35 95 1012.6
20260507103319 48 319 4.0 10.0 0.35 1.73 0.35 95 1012.6
20260507102824 48 37 6.0 11.0 0.39 1.73 0.35 95 1012.5
20260507102339 48 52 4.0 11.0 0.43 1.73 0.35 95 1012.5
20260507101822 48 16 4.0 7.0 0.47 1.73 0.35 95 1012.6
20260507101324 47 75 4.0 8.0 0.43 1.69 0.34 95 1012.6
20260507100828 47 58 5.0 8.0 0.43 1.65 0.33 95 1012.5
20260507100349 47 53 3.0 7.0 0.43 1.61 0.32 95 1012.5
20260507095829 47 352 3.0 7.0 0.43 1.54 0.31 95 1012.5
20260507095330 47 41 3.0 7.0 0.43 1.50 0.30 95 1012.4
20260507094833 47 33 3.0 7.0 0.47 1.46 0.29 94 1012.4
20260507094315 47 38 4.0 8.0 0.47 1.42 0.28 95 1012.4
20260507093817 47 54 5.0 10.0 0.47 1.38 0.28 94 1012.3
20260507093316 47 40 4.0 10.0 0.47 1.34 0.27 95 1012.2
20260507092817 46 65 3.0 10.0 0.47 1.34 0.27 94 1012.1
20260507092316 46 32 5.0 10.0 0.43 1.30 0.26 94 1012.1
20260507091324 47 63 3.0 9.0 0.43 1.26 0.25 94 1012.1
20260507090826 46 34 3.0 8.0 0.39 1.22 0.24 94 1012.1
20260507090328 47 57 4.0 8.0 0.35 1.18 0.24 94 1012.0
20260507085831 46 353 4.0 11.0 0.28 1.10 0.22 94 1011.9
20260507085332 46 30 6.0 11.0 0.20 1.02 0.20 94 1011.8
20260507084835 46 355 4.0 9.0 0.16 0.98 0.20 94 1011.8
20260507084336 46 27 3.0 9.0 0.12 0.94 0.19 94 1011.8
20260507083817 46 34 4.0 9.0 0.08 0.91 0.18 94 1011.7
20260507083319 46 60 4.0 11.0 0.04 0.87 0.17 93 1011.6
20260507082820 46 18 5.0 11.0 0.04 0.87 0.17 93 1011.6
20260507082321 47 43 5.0 10.0 0.04 0.87 0.17 94 1011.5
20260507081844 47 15 5.0 11.0 0.00 0.83 0.17 93 1011.4
20260507081326 46 43 4.0 11.0 0.00 0.83 0.17 93 1011.3
20260507080830 47 76 5.0 9.0 0.00 0.83 0.17 93 1011.2
20260507080314 47 42 4.0 13.0 0.00 0.83 0.17 94 1011.2
20260507075816 47 6 6.0 13.0 0.00 0.83 0.17 93 1011.2
20260507075320 46 73 6.0 11.0 0.00 0.83 0.17 93 1011.1
20260507074822 46 73 7.0 12.0 0.00 0.83 0.17 93 1011.1
20260507074325 47 58 4.0 9.0 0.00 0.83 0.17 94 1011.1
20260507073845 47 33 4.0 9.0 0.00 0.83 0.17 94 1011.0
20260507073324 46 52 4.0 9.0 0.04 0.83 0.17 94 1011.0
20260507072847 46 47 5.0 10.0 0.04 0.83 0.17 94 1011.0
20260507072323 46 56 5.0 10.0 0.04 0.83 0.17 94 1010.9
20260507071818 46 6 5.0 10.0 0.04 0.83 0.17 94 1010.8
20260507071321 46 48 4.0 9.0 0.04 0.83 0.17 94 1010.7
20260507070820 46 50 5.0 10.0 0.04 0.83 0.17 94 1010.6
20260507070319 46 39 4.0 10.0 0.04 0.83 0.17 94 1010.6
20260507065820 46 60 5.0 12.0 0.04 0.83 0.17 94 1010.6
20260507065318 46 72 6.0 12.0 0.04 0.83 0.17 95 1010.6
20260507064819 46 39 5.0 12.0 0.04 0.83 0.17 95 1010.6
20260507064319 46 14 5.0 12.0 0.04 0.83 0.17 95 1010.5
20260507063822 46 53 4.0 10.0 0.00 0.79 0.16 95 1010.4
20260507063325 46 53 4.0 10.0 0.00 0.79 0.16 95 1010.4
20260507062826 46 39 5.0 8.0 0.00 0.79 0.16 95 1010.4
20260507062328 46 20 5.0 8.0 0.00 0.79 0.16 95 1010.4
20260507061847 46 39 3.0 6.0 0.00 0.79 0.16 95 1010.3
20260507061325 46 51 4.0 8.0 0.00 0.79 0.16 95 1010.3
20260507060847 46 360 3.0 7.0 0.00 0.79 0.16 95 1010.2
20260507055831 46 344 6.0 11.0 0.00 0.79 0.16 95 1010.1
20260507055314 46 11 6.0 11.0 0.00 0.79 0.16 95 1010.0
20260507054815 46 21 4.0 10.0 0.00 0.79 0.16 95 1009.9
20260507054316 46 18 4.0 11.0 0.04 0.79 0.16 95 1009.9
20260507053819 46 24 5.0 11.0 0.04 0.79 0.16 95 1009.8
20260507053322 46 25 3.0 8.0 0.04 0.79 0.16 95 1009.8
20260507052911 46 56 3.0 8.0 0.04 0.79 0.16 95 1009.8
20260507052349 46 345 4.0 8.0 0.04 0.79 0.16 95 1009.8
20260507051830 46 27 3.0 8.0 0.04 0.79 0.16 95 1009.7
20260507051332 46 30 3.0 8.0 0.04 0.79 0.16 95 1009.7
20260507050814 46 43 4.0 8.0 0.08 0.79 0.16 95 1009.6
20260507050338 46 52 4.0 7.0 0.08 0.79 0.16 95 1009.6
20260507045820 46 49 3.0 7.0 0.08 0.83 0.16 95 1009.5
20260507045321 46 356 3.0 9.0 0.08 0.83 0.16 95 1009.4
20260507044841 46 16 3.0 9.0 0.08 0.83 0.16 95 1009.4
20260507044321 46 61 4.0 10.0 0.04 0.79 0.15 95 1009.2
20260507043822 46 44 5.0 11.0 0.08 0.79 0.15 95 1009.1
20260507043324 46 32 4.0 11.0 0.08 0.79 0.15 95 1009.0
20260507042824 46 8 3.0 10.0 0.08 0.79 0.15 95 1008.9
20260507042320 47 53 5.0 10.0 0.12 0.79 0.15 95 1008.9
20260507041820 46 40 3.0 10.0 0.16 0.79 0.15 95 1009.0
20260507041321 47 49 2.0 8.0 0.16 0.79 0.15 95 1008.9
20260507040822 47 120 4.0 10.0 0.16 0.75 0.14 95 1008.7
20260507040322 47 25 4.0 12.0 0.20 0.75 0.14 95 1008.6
20260507035822 46 40 4.0 12.0 0.24 0.75 0.14 95 1008.6
20260507035322 46 38 5.0 12.0 0.24 0.75 0.14 95 1008.5
20260507034823 46 19 6.0 12.0 0.28 0.75 0.14 95 1008.5
20260507034324 47 33 5.0 12.0 0.28 0.75 0.14 95 1008.5
20260507033825 47 52 4.0 10.0 0.24 0.71 0.13 95 1008.4
20260507033327 47 18 3.0 10.0 0.28 0.71 0.13 95 1008.3
20260507032832 47 20 4.0 10.0 0.28 0.71 0.13 95 1008.4
20260507032315 47 45 5.0 11.0 0.28 0.67 0.13 95 1008.3
20260507031837 47 46 7.0 11.0 0.28 0.63 0.12 95 1008.3
20260507031319 47 32 3.0 12.0 0.31 0.63 0.12 95 1008.3
20260507030822 47 39 6.0 13.0 0.31 0.59 0.11 95 1008.2
20260507030324 47 22 5.0 12.0 0.28 0.55 0.10 95 1008.2
20260507025827 48 52 7.0 13.0 0.28 0.51 0.09 94 1008.2
20260507025330 48 32 5.0 13.0 0.28 0.51 0.09 94 1008.2
20260507024831 48 345 5.0 9.0 0.28 0.47 0.09 95 1008.1
20260507024331 48 53 4.0 10.0 0.31 0.47 0.09 94 1008.0
20260507023813 48 44 5.0 10.0 0.28 0.43 0.08 94 1008.1
20260507023315 48 32 6.0 12.0 0.31 0.43 0.08 94 1008.1
20260507022838 48 35 5.0 12.0 0.35 0.43 0.08 94 1008.0
20260507022317 48 31 6.0 11.0 0.31 0.39 0.07 94 1008.0
20260507021817 48 35 6.0 10.0 0.31 0.35 0.06 94 1008.1
20260507021318 48 51 4.0 8.0 0.28 0.31 0.06 94 1008.2
20260507020819 48 54 5.0 8.0 0.24 0.28 0.05 93 1008.2
20260507020321 48 25 3.0 8.0 0.24 0.28 0.05 93 1008.1
20260507015821 48 50 4.0 10.0 0.20 0.31 0.04 93 1008.2
20260507015321 48 33 5.0 9.0 0.20 0.31 0.04 93 1008.3
20260507014826 48 56 6.0 9.0 0.16 0.28 0.03 93 1008.2
20260507014329 48 58 3.0 7.0 0.12 0.24 0.02 93 1008.2
20260507013832 48 47 3.0 7.0 0.12 0.24 0.02 93 1008.2
20260507013315 48 48 4.0 8.0 0.08 0.20 0.02 92 1008.2
20260507012815 48 25 5.0 8.0 0.04 0.16 0.01 92 1008.2
20260507012314 48 51 2.0 8.0 0.04 0.16 0.01 92 1008.3
20260507011835 48 44 3.0 8.0 0.00 0.12 0.00 92 1008.2
20260507011313 48 56 4.0 7.0 0.00 0.12 0.00 92 1008.2
20260507010833 48 16 4.0 8.0 0.00 0.12 0.00 91 1008.2
20260507010334 48 34 4.0 8.0 0.00 0.12 0.00 91 1008.1
20260507005817 48 73 4.0 8.0 0.00 0.87 0.00 91 1008.0
20260507005319 48 49 4.0 11.0 0.00 0.87 0.00 91 1008.0
20260507004821 48 48 5.0 11.0 0.00 0.87 0.00 91 1007.9
20260507004324 48 58 6.0 9.0 0.00 0.87 0.00 91 1007.8
20260507003827 49 32 3.0 8.0 0.00 0.87 0.00 91 1007.9
20260507003329 49 42 4.0 9.0 0.00 0.87 0.00 91 1007.9
20260507002830 49 15 4.0 8.0 0.00 0.87 0.00 91 1007.8
20260507002314 49 141 4.0 11.0 0.00 0.87 0.00 90 1007.8
20260507001818 49 64 5.0 11.0 0.00 0.87 0.00 90 1007.8
20260507001322 49 61 6.0 10.0 0.00 0.87 0.00 90 1007.8
20260507000824 49 28 4.0 12.0 0.00 0.87 0.00 90 1007.7
20260507000345 49 355 5.0 12.0 0.00 0.87 0.00 90 1007.7
20260506235826 49 19 4.0 9.0 0.00 1.93 0.00 90 1007.6
20260506235328 49 333 5.0 9.0 0.00 1.93 0.00 90 1007.7
20260506234830 49 47 3.0 8.0 0.00 1.93 0.00 90 1007.7
20260506234313 49 27 4.0 8.0 0.00 1.93 0.00 90 1007.5
20260506233815 49 71 3.0 12.0 0.00 1.93 0.00 90 1007.7
20260506233317 49 46 5.0 12.0 0.00 1.93 0.00 90 1007.6
20260506232838 49 338 5.0 10.0 0.00 1.93 0.00 90 1007.7
20260506232337 49 56 5.0 12.0 0.00 1.93 0.00 90 1007.6
20260506231816 49 352 5.0 13.0 0.00 1.93 0.00 90 1007.6
20260506231336 49 15 6.0 13.0 0.00 1.93 0.00 90 1007.5
20260506230853 50 57 4.0 10.0 0.00 1.93 0.00 90 1007.6
20260506230351 50 4 5.0 10.0 0.00 1.93 0.00 90 1007.6
20260506225830 50 14 5.0 10.0 0.00 2.95 0.00 90 1007.5
20260506224838 50 38 5.0 10.0 0.00 2.95 0.00 90 1007.3
20260506224318 50 8 4.0 10.0 0.00 2.95 0.00 90 1007.4
20260506223819 50 6 6.0 10.0 0.00 2.95 0.00 89 1007.4
20260506223319 50 49 5.0 13.0 0.00 2.95 0.00 89 1007.4
20260506222820 50 68 5.0 13.0 0.00 2.95 0.00 89 1007.4
20260506222320 50 18 4.0 9.0 0.00 2.95 0.00 89 1007.5
20260506221840 50 54 3.0 11.0 0.00 2.95 0.00 89 1007.4
20260506221318 50 28 5.0 11.0 0.00 2.95 0.00 89 1007.3
20260506220820 51 44 4.0 12.0 0.00 2.95 0.00 89 1007.1
20260506220406 51 20 5.0 12.0 0.00 2.95 0.00 89 1007.1
20260506215822 51 53 4.0 13.0 0.00 3.03 0.59 89 1007.0
20260506215345 51 43 6.0 13.0 0.00 3.03 0.59 89 1006.9
20260506214823 51 35 6.0 13.0 0.00 3.03 0.59 89 1006.9
20260506214328 51 47 4.0 10.0 0.00 3.03 0.59 89 1006.8
20260506213813 51 30 6.0 10.0 0.00 3.03 0.59 89 1006.9
20260506213336 51 51 4.0 9.0 0.00 3.03 0.59 89 1006.9
20260506212819 51 33 3.0 14.0 0.00 3.03 0.59 89 1006.8
20260506212342 51 41 7.0 14.0 0.00 3.03 0.59 89 1006.9
20260506211824 52 36 4.0 11.0 0.00 3.03 0.59 89 1006.8
20260506211324 52 4 5.0 11.0 0.00 3.03 0.59 89 1006.9
20260506210824 52 58 5.0 10.0 0.00 3.03 0.59 89 1006.7
20260506210324 52 39 6.0 10.0 0.00 3.03 0.59 89 1006.6
20260506205825 52 61 3.0 10.0 0.00 3.03 0.59 89 1006.7
20260506205326 52 42 5.0 11.0 0.00 3.03 0.59 89 1006.7
20260506204827 52 28 3.0 11.0 0.00 3.03 0.59 89 1006.7
20260506204328 52 20 5.0 10.0 0.00 3.03 0.59 89 1006.7
20260506203829 52 56 5.0 10.0 0.00 3.03 0.59 89 1006.7
20260506203328 52 55 4.0 11.0 0.00 3.03 0.59 89 1006.7
20260506202829 52 42 5.0 11.0 0.00 3.03 0.59 89 1006.8
20260506202331 52 23 5.0 13.0 0.00 3.03 0.59 88 1006.7
20260506201814 52 45 6.0 13.0 0.00 3.03 0.59 88 1006.9
20260506201316 53 359 3.0 11.0 0.00 3.03 0.59 89 1006.9
20260506200837 53 15 5.0 11.0 0.00 3.03 0.59 89 1006.8
20260506200315 53 65 5.0 11.0 0.00 3.03 0.59 89 1006.7
20260506195835 53 50 4.0 11.0 0.00 3.03 0.59 89 1006.5
20260506195312 53 49 5.0 10.0 0.00 3.03 0.59 89 1006.4
20260506194815 53 53 5.0 10.0 0.00 3.03 0.59 88 1006.5
20260506194337 53 51 6.0 13.0 0.00 3.03 0.59 88 1006.3
20260506193818 53 34 5.0 13.0 0.00 3.03 0.59 88 1006.2
20260506193319 54 74 6.0 11.0 0.00 3.03 0.59 87 1006.2
20260506192822 54 32 5.0 11.0 0.00 3.03 0.59 88 1006.1
20260506192325 54 51 4.0 12.0 0.00 3.03 0.59 88 1006.1
20260506191828 54 47 7.0 12.0 0.00 3.03 0.59 87 1006.1